Location: Pine Mountain Observatory
(43.7910°N, 120.9377°W)
Time: 01:39:59
(UTC-07:00)

Transit 2A Rocket - All Passes

Search period start: 23 May 2019 00:00
Search period end: 02 June 2019 00:00
Orbit: 585 x 918 km, 66.7° (Epoch: 23 May)

Date Brightness Start Highest point End Pass type
(mag) Time Alt. Az. Time Alt. Az. Time Alt. Az.
23 May - 01:25:49 10° N 01:29:29 17° NE 01:32:57 10° ENE visible
23 May - 03:07:34 10° NNW 03:13:12 73° NE 03:18:17 10° SE visible
23 May - 04:51:48 10° WNW 04:55:01 16° WSW 04:58:04 10° SW visible
23 May - 17:42:03 10° S 17:47:45 45° ESE 17:53:32 10° NE daylight
23 May - 19:24:54 10° WSW 19:30:32 38° NW 19:36:10 10° NNE daylight
23 May - 21:12:53 10° NW 21:14:58 12° NNW 21:17:02 10° N visible
24 May - 00:43:58 10° N 00:46:20 12° NNE 00:48:38 10° NE visible
24 May - 02:25:08 10° NNW 02:30:33 46° NE 02:35:29 10° SE visible
24 May - 04:08:18 10° NW 04:12:53 28° WSW 04:17:07 10° SSW visible
24 May - 17:00:26 10° SSE 17:05:28 28° ESE 17:10:33 10° NE daylight
24 May - 18:41:50 10° SW 18:47:49 56° NW 18:53:48 10° NNE daylight
24 May - 20:28:14 10° WNW 20:31:47 16° NNW 20:35:18 10° N daylight
25 May - 01:42:49 10° NNW 01:47:46 30° NE 01:52:19 10° ESE visible
25 May - 03:25:21 10° NW 03:30:38 48° WSW 03:35:25 10° S visible
25 May - 16:19:33 10° SE 16:23:18 17° ESE 16:27:04 10° ENE daylight
25 May - 17:59:07 10° SSW 18:05:12 86° WNW 18:11:21 10° NNE daylight
25 May - 19:44:10 10° W 19:48:43 21° NW 19:53:15 10° N daylight
26 May - 01:00:36 10° N 01:04:51 21° NE 01:08:49 10° E visible
26 May - 02:42:39 10° NNW 02:48:14 81° WSW 02:53:15 10° SSE visible
26 May - 04:28:45 10° W 04:29:43 10° W 04:30:40 10° WSW visible
26 May - 17:16:46 10° SSW 17:22:44 62° ESE 17:28:44 10° NE daylight
26 May - 19:00:30 10° WSW 19:05:48 30° NW 19:11:03 10° NNE daylight
27 May - 00:18:34 10° N 00:21:47 15° NNE 00:24:52 10° ENE visible
27 May - 02:00:08 10° NNW 02:05:41 62° NE 02:10:42 10° SE visible
27 May - 03:43:56 10° WNW 03:47:40 19° WSW 03:51:11 10° SSW visible
27 May - 16:34:49 10° S 16:40:22 38° ESE 16:45:57 10° NE daylight
27 May - 18:17:12 10° WSW 18:22:59 43° NW 18:28:45 10° NNE daylight
27 May - 20:04:37 10° NW 20:07:15 13° NNW 20:09:51 10° N daylight
27 May - 23:36:59 10° N 23:38:37 11° NNE 23:40:13 10° NE visible
28 May - 01:17:44 10° NNW 01:23:00 39° NE 01:27:46 10° ESE visible
28 May - 03:00:40 10° NW 03:05:30 33° WSW 03:09:55 10° S visible
28 May - 15:53:25 10° SSE 15:58:07 24° ESE 16:02:50 10° NE daylight
28 May - 17:34:15 10° SW 17:40:19 65° NW 17:46:22 10° NNE daylight
28 May - 19:20:12 10° WNW 19:24:07 17° NW 19:27:59 10° N daylight
29 May - 00:35:28 10° NNW 00:40:09 26° NE 00:44:30 10° E visible
29 May - 02:17:49 10° NW 02:23:12 57° WSW 02:28:03 10° SSE visible
29 May - 15:12:57 10° SE 15:15:58 14° ESE 15:19:01 10° ENE daylight
29 May - 16:51:39 10° SSW 16:57:44 83° ESE 17:03:51 10° NNE daylight
29 May - 18:36:16 10° W 18:41:06 24° NW 18:45:53 10° NNE daylight
29 May - 23:53:19 10° N 23:57:11 18° NE 00:00:50 10° E visible
30 May - 01:35:11 10° NNW 01:40:45 85° ENE 01:45:45 10° SSE visible
30 May - 03:20:05 10° WNW 03:22:23 13° W 03:24:38 10° SW visible
30 May - 16:09:25 10° S 16:15:18 53° ESE 16:21:12 10° NE daylight
30 May - 17:52:44 10° WSW 17:58:13 34° NW 18:03:40 10° NNE daylight
30 May - 19:41:35 10° NW 19:42:46 11° NNW 19:43:57 10° NNW daylight
30 May - 23:11:24 10° N 23:14:06 13° NNE 23:16:41 10° ENE visible
31 May - 00:52:42 10° NNW 00:58:09 52° NE 01:03:04 10° SE visible
31 May - 02:36:10 10° NW 02:40:19 23° WSW 02:44:09 10° SSW visible
31 May - 15:27:39 10° S 15:32:58 33° ESE 15:38:19 10° NE daylight
31 May - 17:09:32 10° SW 17:15:27 49° NW 17:21:20 10° NNE daylight
31 May - 18:56:27 10° WNW 18:59:34 14° NNW 19:02:36 10° N daylight
01 Jun - 00:10:22 10° NNW 00:15:24 34° NE 00:20:01 10° ESE visible
01 Jun - 01:53:05 10° NW 01:58:06 39° WSW 02:02:39 10° S visible
01 Jun - 14:46:29 10° SSE 14:50:45 20° ESE 14:55:03 10° ENE daylight
01 Jun - 16:26:43 10° SW 16:32:49 75° WNW 16:38:55 10° NNE daylight
01 Jun - 18:12:13 10° W 18:16:28 19° NW 18:20:39 10° N daylight
01 Jun - 23:28:07 10° NNW 23:32:31 23° NE 23:36:36 10° E visible
